Weather History for Gunnison, CO

Change the Weather History Date:

Thursday, November 10, 2011

  Actual Average Record
Temperature  
Mean Temperature -4 °C -  
Max Temperature 6 °C 5 °C 13 °C (1999)
Min Temperature -13 °C -9 °C -15 °C (1998)
Degree Days  
Heating Degree Days 40    
Moisture  
Dew Point -14 °C    
Average Humidity 55    
Maximum Humidity 85    
Minimum Humidity 19    
Precipitation  
Precipitation 0.00 mm - - ()
Sea Level Pressure  
Sea Level Pressure 1032 hPa    
Wind  
Wind Speed 2 km/h (North)    
Max Wind Speed 19 km/h    
Max Gust Speed -    
Visibility 16 kilometers    
Events      
Averages and records for this station are not official NWS values.
T = Trace of Precipitation, MM = Missing Value Source: NWS Daily Summary

Daily Weather History Graph

Daily Weather History Graph

Search for Another Location

Airport:

Trip Planner

Search our weather history database for the weather conditions in past years. The results will help you decide how hot, cold, wet, or windy it might be!

Date:

Astronomy

Nov. 10, 2011 Rise Set
Actual Time 6:43 AM MST 4:58 PM MST
Civil Twilight 6:15 AM MST 5:26 PM MST
Nautical Twilight 5:44 AM MST 5:58 PM MST
Astronomical Twilight 5:12 AM MST 6:29 PM MST
Moon 4:49 PM MST (11/10) 6:38 AM MST (11/10)
Length of Visible Light 11h 11m
Length of Day
10h 15m
Full, 100% of the Moon is Illuminated
Nov 10
Full
Nov 10
Full
Nov 18
Last Quarter
Nov 24
New
Dec 2
First Quarter

Hourly Weather History & Observations

Time (MST) Temp. Windchill Dew Point Humidity Pressure Visibility Wind Dir Wind Speed Gust Speed Precip Events Conditions
12:15 AM -9.0 °C -12.1 °C -14.0 °C 68% 1034.8 hPa 16.1 km North 5.6 km/h / 1.5 m/s - N/A   Clear
12:35 AM -9.0 °C -12.1 °C -14.0 °C 68% 1034.8 hPa 16.1 km North 5.6 km/h / 1.5 m/s - N/A   Clear
12:55 AM -11.0 °C - -14.0 °C 79% 1034.8 hPa 16.1 km Calm Calm - N/A   Clear
1:15 AM -10.0 °C - -14.0 °C 73% 1034.8 hPa 16.1 km Calm Calm - N/A   Clear
1:35 AM -10.0 °C - -14.0 °C 73% 1034.8 hPa 14.5 km Calm Calm - N/A   Clear
1:55 AM -11.0 °C -15.4 °C -14.0 °C 79% 1034.8 hPa 16.1 km South 7.4 km/h / 2.1 m/s - N/A   Clear
2:15 AM -10.0 °C - -14.0 °C 73% 1034.8 hPa 16.1 km Calm Calm - N/A   Clear
2:35 AM -10.0 °C - -13.0 °C 79% 1035.1 hPa 16.1 km Calm Calm - N/A   Clear
2:55 AM -11.0 °C - -15.0 °C 73% 1035.1 hPa 16.1 km Calm Calm - N/A   Clear
3:15 AM -12.0 °C - -15.0 °C 79% 1034.8 hPa 16.1 km Calm Calm - N/A   Clear
3:35 AM -11.0 °C - -16.0 °C 67% 1035.1 hPa 16.1 km Calm Calm - N/A   Clear
3:55 AM -12.0 °C - -14.0 °C 85% 1034.8 hPa 16.1 km Calm Calm - N/A   Clear
4:15 AM -12.0 °C - -16.0 °C 73% 1035.1 hPa 16.1 km Calm Calm - N/A   Clear
5:35 AM -13.0 °C - -16.0 °C 79% 1035.1 hPa 16.1 km Calm Calm - N/A   Clear
5:55 AM -13.0 °C - -15.0 °C 85% 1035.1 hPa 16.1 km Calm Calm - N/A   Clear
6:15 AM -13.0 °C - -16.0 °C 79% 1035.1 hPa 16.1 km Calm Calm - N/A   Clear
6:35 AM -13.0 °C - -16.0 °C 79% 1035.4 hPa 16.1 km Calm Calm - N/A   Clear
6:55 AM -13.0 °C - -17.0 °C 73% 1035.4 hPa 16.1 km Calm Calm - N/A   Clear
7:35 AM -13.0 °C - -15.0 °C 85% 1035.8 hPa 16.1 km Calm Calm - N/A   Clear
7:55 AM -12.0 °C - -16.0 °C 73% 1036.1 hPa 16.1 km Calm Calm - N/A   Clear
8:15 AM -11.0 °C - -14.0 °C 79% 1036.1 hPa 16.1 km Calm Calm - N/A   Clear
8:35 AM -9.0 °C - -14.0 °C 68% 1036.1 hPa 16.1 km Calm Calm - N/A   Clear
8:55 AM -9.0 °C - -14.0 °C 68% 1036.1 hPa 16.1 km Calm Calm - N/A   Clear
9:15 AM -8.0 °C - -13.0 °C 68% 1035.8 hPa 16.1 km Calm Calm - N/A   Clear
9:35 AM -7.0 °C - -13.0 °C 63% 1035.4 hPa 16.1 km Calm Calm - N/A   Clear
9:55 AM -6.0 °C - -13.0 °C 58% 1035.1 hPa 16.1 km Calm Calm - N/A   Clear
10:15 AM -6.0 °C - -14.0 °C 54% 1034.8 hPa 16.1 km Calm Calm - N/A   Clear
10:35 AM -4.0 °C - -13.0 °C 50% 1034.8 hPa 16.1 km Calm Calm - N/A   Clear
10:55 AM -3.0 °C - -13.0 °C 47% 1034.1 hPa 16.1 km Calm Calm - N/A   Clear
11:15 AM -2.0 °C - -13.0 °C 43% 1033.7 hPa 16.1 km Calm Calm - N/A   Clear
11:35 AM -2.0 °C - -13.0 °C 43% 1033.4 hPa 16.1 km Calm Calm - N/A   Clear
11:55 AM -1.0 °C - -14.0 °C 37% 1032.7 hPa 16.1 km Calm Calm - N/A   Clear
12:15 PM -1.0 °C -3.0 °C -15.0 °C 34% 1032.1 hPa 16.1 km SSW 5.6 km/h / 1.5 m/s - N/A   Clear
12:35 PM 1.0 °C - -14.0 °C 32% 1031.4 hPa 16.1 km Calm Calm - N/A   Clear
12:55 PM 2.0 °C -0.2 °C -14.0 °C 30% 1031.0 hPa 16.1 km East 7.4 km/h / 2.1 m/s - N/A   Clear
1:15 PM 2.0 °C - -14.0 °C 30% 1030.4 hPa 16.1 km Calm Calm - N/A   Clear
1:35 PM 3.0 °C - -14.0 °C 28% 1029.7 hPa 16.1 km Calm Calm - N/A   Clear
2:15 PM 4.0 °C - -13.0 °C 28% 1029.0 hPa 16.1 km Calm Calm - N/A   Clear
2:35 PM 5.0 °C 3.9 °C -14.0 °C 24% 1028.7 hPa 16.1 km NE 5.6 km/h / 1.5 m/s - N/A   Clear
2:55 PM 5.0 °C 3.9 °C -14.0 °C 24% 1028.3 hPa 16.1 km ESE 5.6 km/h / 1.5 m/s - N/A   Clear
3:15 PM 5.0 °C - -16.0 °C 21% 1028.0 hPa 16.1 km Calm Calm - N/A   Clear
3:35 PM 6.0 °C - -16.0 °C 19% 1028.0 hPa 16.1 km Calm Calm - N/A   Clear
3:55 PM 6.0 °C - -16.0 °C 19% 1027.7 hPa 16.1 km Calm Calm - N/A   Clear
4:35 PM 5.0 °C 3.3 °C -15.0 °C 23% 1027.3 hPa 16.1 km ENE 7.4 km/h / 2.1 m/s - N/A   Clear
4:55 PM 5.0 °C - -15.0 °C 23% 1027.3 hPa 16.1 km Calm Calm - N/A   Clear
5:15 PM 2.0 °C -1.9 °C -15.0 °C 28% 1027.0 hPa 16.1 km NNW 14.8 km/h / 4.1 m/s - N/A   Clear
5:35 PM 0.0 °C -5.0 °C -14.0 °C 35% 1027.0 hPa 16.1 km NNW 18.5 km/h / 5.1 m/s - N/A   Clear
5:55 PM -1.0 °C -5.2 °C -13.0 °C 40% 1027.3 hPa 16.1 km NNW 13.0 km/h / 3.6 m/s - N/A   Clear
6:15 PM -2.0 °C -4.1 °C -14.0 °C 40% 1027.3 hPa 16.1 km North 5.6 km/h / 1.5 m/s - N/A   Clear
6:35 PM -2.0 °C -5.5 °C -13.0 °C 43% 1027.3 hPa 16.1 km North 9.3 km/h / 2.6 m/s - N/A   Clear
6:55 PM -2.0 °C -4.9 °C -14.0 °C 40% 1027.7 hPa 16.1 km NNW 7.4 km/h / 2.1 m/s - N/A   Clear
7:15 PM -4.0 °C - -14.0 °C 46% 1027.7 hPa 16.1 km Calm Calm - N/A   Clear
7:35 PM -4.0 °C - -13.0 °C 50% 1027.7 hPa 16.1 km Calm Calm - N/A   Clear
7:55 PM -5.0 °C - -13.0 °C 54% 1027.3 hPa 16.1 km Calm Calm - N/A   Clear
8:15 PM -7.0 °C -9.8 °C -14.0 °C 58% 1027.3 hPa 16.1 km NNE 5.6 km/h / 1.5 m/s - N/A   Clear
8:35 PM -6.0 °C - -13.0 °C 58% 1027.3 hPa 16.1 km Calm Calm - N/A   Clear
8:55 PM -7.0 °C - -13.0 °C 63% 1027.7 hPa 16.1 km Calm Calm - N/A   Clear
9:15 PM -9.0 °C - -14.0 °C 68% 1027.7 hPa 16.1 km Calm Calm - N/A   Clear
9:35 PM -8.0 °C - -13.0 °C 68% 1027.7 hPa 16.1 km Calm Calm - N/A   Clear
9:55 PM -8.0 °C -12.6 °C -16.0 °C 53% 1027.7 hPa 16.1 km North 9.3 km/h / 2.6 m/s - N/A   Clear
10:15 PM -8.0 °C -11.0 °C -15.0 °C 58% 1027.7 hPa 16.1 km NNW 5.6 km/h / 1.5 m/s - N/A   Clear
10:35 PM -9.0 °C - -15.0 °C 62% 1027.7 hPa 16.1 km Calm Calm - N/A   Clear
10:55 PM -9.0 °C - -14.0 °C 68% 1027.7 hPa 16.1 km Calm Calm - N/A   Clear
11:15 PM -9.0 °C - -16.0 °C 58% 1027.7 hPa 16.1 km Calm Calm - N/A   Clear
11:35 PM -9.0 °C - -16.0 °C 58% 1027.7 hPa 16.1 km Calm Calm - N/A   Clear
11:55 PM -11.0 °C - -16.0 °C 67% 1027.7 hPa 16.1 km Calm Calm - N/A   Clear